When you browse on this site, cookies collect data to enhance your experience and personalize the content and advertising you see.
Visit our Privacy Policy to learn more. By continuing to use the site, you agree to this use of cookies and data.
  • In United Kingdom
  • List of Countries
  • For 7 days
  • Water Temperature
  • Satellite Maps
  • Weather Map
  • Weather Widgets
  • user-avatar
    Login

    Hourly Weather Etchmiadzin

    Today, 21 January, Monday

    Time Temperature Precipitation Wind Pressure Humidity
    00:00 -1°C° 0 mm 1 mps 691 mmHg 38%
    01:00 -1°C° 0 mm 1 mps 691 mmHg 39%
    02:00 -1°C° 0 mm 1 mps 691 mmHg 39%
    03:00 -1°C° 0 mm 1 mps 690 mmHg 40%
    04:00 -1°C° 0 mm 1 mps 690 mmHg 41%
    05:00 -4°C° 0 mm 2 mps 690 mmHg 41%
    06:00 -4°C° 0 mm 2 mps 690 mmHg 42%
    07:00 -3°C° 0 mm 2 mps 690 mmHg 41%
    08:00 0°C° 0 mm 1 mps 690 mmHg 40%
    09:00 +1°C° 0 mm 1 mps 691 mmHg 38%
    10:00 +2°C° 0 mm 1 mps 690 mmHg 36%
    11:00 +2°C° 0 mm 2 mps 690 mmHg 34%
    12:00 +3°C° 0 mm 2 mps 690 mmHg 32%
    13:00 +3°C° 0 mm 2 mps 689 mmHg 32%
    14:00 +3°C° 0 mm 2 mps 689 mmHg 32%
    15:00 +4°C° 0 mm 2 mps 689 mmHg 33%
    16:00 +2°C° 0 mm 2 mps 689 mmHg 35%
    17:00 +1°C° 0 mm 2 mps 689 mmHg 37%
    18:00 -1°C° 0 mm 2 mps 689 mmHg 39%
    19:00 -1°C° 0 mm 2 mps 689 mmHg 40%
    20:00 -2°C° 0 mm 2 mps 689 mmHg 41%
    21:00 -2°C° 0 mm 2 mps 689 mmHg 42%
    22:00 -2°C° 0 mm 2 mps 689 mmHg 43%
    23:00 -3°C° 0 mm 2 mps 689 mmHg 44%

    Tomorrow, 22 January, Tuesday

    Time Temperature Precipitation Wind Pressure Humidity
    00:00 -1°C° 0 mm 1 mps 688 mmHg 44%
    01:00 -1°C° 0 mm 1 mps 688 mmHg 45%
    02:00 -1°C° 0 mm 1 mps 688 mmHg 45%
    03:00 -1°C° 0 mm 1 mps 688 mmHg 45%
    04:00 -1°C° 0 mm 1 mps 687 mmHg 45%
    05:00 -1°C° 0 mm 1 mps 687 mmHg 45%
    06:00 -1°C° 0 mm 1 mps 687 mmHg 44%
    07:00 0°C° 0 mm 1 mps 687 mmHg 43%
    08:00 0°C° 0 mm 1 mps 687 mmHg 41%
    09:00 +1°C° 0 mm 1 mps 688 mmHg 39%
    10:00 +2°C° 0 mm 1 mps 687 mmHg 38%
    11:00 +3°C° 0 mm 1 mps 687 mmHg 36%
    12:00 +4°C° 0 mm 1 mps 686 mmHg 34%
    13:00 +5°C° 0 mm 1 mps 686 mmHg 34%
    14:00 +5°C° 0 mm 1 mps 686 mmHg 34%
    15:00 +5°C° 0 mm 1 mps 686 mmHg 35%
    16:00 +4°C° 0 mm 1 mps 686 mmHg 37%
    17:00 +3°C° 0 mm 1 mps 686 mmHg 39%
    18:00 +2°C° 0 mm 1 mps 687 mmHg 41%
    19:00 +2°C° 0 mm 1 mps 687 mmHg 42%
    20:00 +1°C° 0 mm 1 mps 687 mmHg 44%
    21:00 +1°C° 0 mm 1 mps 687 mmHg 45%
    22:00 0°C° 0 mm 1 mps 687 mmHg 46%
    23:00 0°C° 0 mm 1 mps 687 mmHg 47%

    Day after tomorrow, 23 January, Wednesday

    Time Temperature Precipitation Wind Pressure Humidity
    00:00 0°C° 0 mm 1 mps 687 mmHg 48%
    01:00 0°C° 0 mm 1 mps 687 mmHg 48%
    02:00 -1°C° 0 mm 1 mps 688 mmHg 49%
    03:00 -1°C° 0 mm 1 mps 688 mmHg 49%
    04:00 -1°C° 0 mm 1 mps 688 mmHg 49%
    05:00 -1°C° 0 mm 1 mps 688 mmHg 49%
    06:00 -1°C° 0 mm 1 mps 687 mmHg 50%
    07:00 0°C° 0 mm 1 mps 688 mmHg 48%
    08:00 +1°C° 0 mm 1 mps 688 mmHg 46%
    09:00 +2°C° 0 mm 1 mps 689 mmHg 44%
    10:00 +3°C° 0 mm 1 mps 688 mmHg 43%
    11:00 +3°C° 0 mm 2 mps 688 mmHg 42%
    12:00 +4°C° 0 mm 2 mps 688 mmHg 41%
    13:00 +4°C° 0 mm 2 mps 688 mmHg 42%
    14:00 +4°C° 0 mm 2 mps 687 mmHg 42%
    15:00 +5°C° 0 mm 2 mps 687 mmHg 42%
    16:00 +3°C° 0 mm 2 mps 688 mmHg 44%
    17:00 +2°C° 0 mm 2 mps 688 mmHg 46%
    18:00 +1°C° 0 mm 2 mps 688 mmHg 48%
    19:00 +1°C° 0 mm 2 mps 689 mmHg 49%
    20:00 -1°C° 0 mm 2 mps 689 mmHg 50%
    21:00 -1°C° 0 mm 2 mps 690 mmHg 51%
    22:00 -1°C° 0 mm 2 mps 690 mmHg 52%
    23:00 -1°C° 0 mm 2 mps 690 mmHg 54%

    24 January, Thursday

    Time Temperature Precipitation Wind Pressure Humidity
    00:00 0°C° 0 mm 1 mps 690 mmHg 55%
    01:00 0°C° 0 mm 1 mps 690 mmHg 56%
    02:00 -2°C° 0 mm 2 mps 690 mmHg 56%
    03:00 -2°C° 0 mm 2 mps 690 mmHg 57%
    04:00 -2°C° 0 mm 2 mps 690 mmHg 56%
    05:00 -2°C° 0 mm 2 mps 690 mmHg 56%
    06:00 -2°C° 0 mm 2 mps 689 mmHg 56%
    07:00 -2°C° 0 mm 2 mps 690 mmHg 53%
    08:00 -1°C° 0 mm 2 mps 690 mmHg 51%
    09:00 +1°C° 0 mm 2 mps 690 mmHg 48%
    10:00 +2°C° 0 mm 2 mps 690 mmHg 46%
    11:00 +4°C° 0 mm 2 mps 689 mmHg 45%
    12:00 +5°C° 0 mm 2 mps 689 mmHg 43%
    13:00 +4°C° 0 mm 3 mps 689 mmHg 43%
    14:00 +4°C° 0 mm 3 mps 688 mmHg 43%
    15:00 +5°C° 0 mm 3 mps 688 mmHg 43%
    16:00 +4°C° 0 mm 3 mps 688 mmHg 45%
    17:00 +3°C° 0 mm 3 mps 688 mmHg 47%
    18:00 +1°C° 0 mm 3 mps 688 mmHg 50%
    19:00 +2°C° 0 mm 2 mps 688 mmHg 51%
    20:00 +2°C° 0 mm 2 mps 689 mmHg 52%
    21:00 +1°C° 0 mm 2 mps 689 mmHg 53%
    22:00 +1°C° 0 mm 2 mps 688 mmHg 53%
    23:00 +1°C° 0 mm 2 mps 688 mmHg 54%

    25 January, Friday

    Time Temperature Precipitation Wind Pressure Humidity
    00:00 +1°C° 0 mm 2 mps 688 mmHg 54%
    01:00 +1°C° 0 mm 2 mps 688 mmHg 54%
    02:00 +1°C° 0 mm 2 mps 687 mmHg 54%
    03:00 +1°C° 0 mm 2 mps 687 mmHg 54%
    04:00 +1°C° 0 mm 2 mps 687 mmHg 55%
    05:00 +2°C° 0 mm 2 mps 686 mmHg 55%
    06:00 +2°C° 0 mm 2 mps 686 mmHg 56%
    07:00 +2°C° 0.1 mm 2 mps 686 mmHg 56%
    08:00 +4°C° 0.1 mm 1 mps 686 mmHg 56%
    09:00 +4°C° 0.1 mm 1 mps 687 mmHg 56%
    10:00 +4°C° 0 mm 2 mps 686 mmHg 57%
    11:00 +4°C° 0 mm 2 mps 686 mmHg 57%
    12:00 +4°C° 0 mm 3 mps 686 mmHg 57%
    13:00 +4°C° 0 mm 3 mps 686 mmHg 55%
    14:00 +5°C° 0 mm 3 mps 685 mmHg 54%
    15:00 +5°C° 0 mm 4 mps 685 mmHg 52%
    16:00 +4°C° 0 mm 3 mps 685 mmHg 54%
    17:00 +3°C° 0 mm 3 mps 686 mmHg 56%
    18:00 +2°C° 0 mm 3 mps 686 mmHg 57%
    19:00 +3°C° 0 mm 2 mps 686 mmHg 58%
    20:00 +3°C° 0 mm 2 mps 686 mmHg 59%
    21:00 +2°C° 0 mm 2 mps 686 mmHg 60%
    22:00 +2°C° 0 mm 2 mps 686 mmHg 60%
    23:00 +2°C° 0 mm 2 mps 686 mmHg 61%

    26 January, Saturday

    Time Temperature Precipitation Wind Pressure Humidity
    00:00 +2°C° 0 mm 2 mps 686 mmHg 61%
    01:00 +1°C° 0 mm 2 mps 686 mmHg 61%
    02:00 +1°C° 0 mm 2 mps 686 mmHg 61%
    03:00 +1°C° 0 mm 2 mps 686 mmHg 61%
    04:00 +1°C° 0 mm 2 mps 686 mmHg 61%
    05:00 +1°C° 0 mm 2 mps 685 mmHg 61%
    06:00 +1°C° 0 mm 2 mps 685 mmHg 61%
    07:00 +2°C° 0 mm 2 mps 686 mmHg 58%
    08:00 +3°C° 0 mm 2 mps 686 mmHg 56%
    09:00 +3°C° 0 mm 2 mps 686 mmHg 54%
    10:00 +5°C° 0 mm 2 mps 685 mmHg 51%
    11:00 +6°C° 0 mm 2 mps 685 mmHg 48%
    12:00 +7°C° 0 mm 3 mps 684 mmHg 46%
    13:00 +7°C° 0 mm 3 mps 684 mmHg 44%
    14:00 +8°C° 0 mm 3 mps 683 mmHg 43%
    15:00 +8°C° 0 mm 3 mps 683 mmHg 42%
    16:00 +7°C° 0 mm 3 mps 683 mmHg 44%
    17:00 +5°C° 0 mm 3 mps 683 mmHg 47%
    18:00 +4°C° 0 mm 3 mps 684 mmHg 49%
    19:00 +3°C° 0 mm 3 mps 684 mmHg 51%
    20:00 +4°C° 0 mm 2 mps 684 mmHg 53%
    21:00 +4°C° 0 mm 2 mps 684 mmHg 55%
    22:00 +4°C° 0 mm 2 mps 683 mmHg 57%
    23:00 +4°C° 0 mm 2 mps 683 mmHg 58%
    Show more